TimeEDT,TemperatureF,Dew PointF,Humidity,Sea Level PressureIn,VisibilityMPH,Wind Direction,Wind SpeedMPH,Gust SpeedMPH,PrecipitationIn,Events,Conditions,WindDirDegrees,DateUTC
12:15 AM,51.8,51.8,100,30.09,2.5,North,8.1,-,N/A,,Overcast,360,2012-10-09 04:15:00
12:35 AM,51.8,51.8,100,30.09,1.2,North,6.9,-,N/A,,Overcast,350,2012-10-09 04:35:00
12:55 AM,51.8,51.8,100,30.08,0.8,North,8.1,-,N/A,,Overcast,350,2012-10-09 04:55:00
1:15 AM,51.8,51.8,100,30.08,1.0,North,6.9,-,N/A,,Overcast,350,2012-10-09 05:15:00
1:35 AM,51.8,51.8,100,30.08,2.0,North,8.1,-,N/A,,Overcast,350,2012-10-09 05:35:00
1:55 AM,51.8,51.8,100,30.09,2.0,NNW,6.9,-,N/A,,Overcast,330,2012-10-09 05:55:00
2:15 AM,51.8,51.8,100,30.09,2.5,NNW,8.1,-,N/A,,Overcast,330,2012-10-09 06:15:00
2:55 AM,51.8,51.8,100,30.09,3.0,NNW,5.8,-,0.02,,Heavy Drizzle,340,2012-10-09 06:55:00
3:15 AM,51.8,51.8,100,30.09,4.0,North,6.9,-,N/A,,Drizzle,360,2012-10-09 07:15:00
3:55 AM,51.8,51.8,100,30.08,5.0,North,10.4,-,N/A,,Light Drizzle,350,2012-10-09 07:55:00
4:15 AM,51.8,51.8,100,30.08,5.0,North,9.2,-,N/A,,Drizzle,350,2012-10-09 08:15:00
4:35 AM,51.8,51.8,100,30.08,5.0,North,8.1,-,N/A,,Light Drizzle,350,2012-10-09 08:35:00
4:55 AM,51.8,51.8,100,30.08,5.0,North,9.2,-,N/A,,Overcast,350,2012-10-09 08:55:00
5:15 AM,51.8,51.8,100,30.09,7.0,North,6.9,-,N/A,,Overcast,350,2012-10-09 09:15:00
5:35 AM,51.8,51.8,100,30.09,7.0,NNW,9.2,-,N/A,,Overcast,340,2012-10-09 09:35:00
5:55 AM,51.8,51.8,100,30.09,3.0,North,9.2,-,N/A,,Overcast,350,2012-10-09 09:55:00
6:15 AM,51.8,50.0,94,30.09,4.0,NNW,6.9,-,N/A,,Overcast,340,2012-10-09 10:15:00
6:35 AM,51.8,50.0,94,30.09,4.0,NNW,10.4,-,N/A,,Overcast,340,2012-10-09 10:35:00
6:55 AM,51.8,50.0,94,30.09,5.0,North,6.9,-,N/A,,Overcast,350,2012-10-09 10:55:00
6:56 AM,51.8,50.0,94,30.09,3.0,North,8.1,-,N/A,,Overcast,350,2012-10-09 10:56:00
7:56 AM,51.8,50.0,94,30.12,2.0,NNW,8.1,-,N/A,,Overcast,340,2012-10-09 11:56:00
8:56 AM,51.8,51.8,100,30.13,2.0,NNW,6.9,-,N/A,,Overcast,340,2012-10-09 12:56:00
9:56 AM,51.8,51.8,100,30.14,5.0,North,9.2,-,N/A,,Overcast,350,2012-10-09 13:56:00
10:56 AM,53.6,51.8,94,30.13,2.5,NNW,8.1,-,N/A,,Overcast,330,2012-10-09 14:56:00
11:56 AM,53.6,51.8,94,30.12,4.0,NNW,8.1,-,N/A,,Overcast,340,2012-10-09 15:56:00
12:56 PM,55.4,53.6,94,30.12,4.0,NNW,9.2,-,N/A,,Overcast,330,2012-10-09 16:56:00
1:56 PM,55.4,53.6,94,30.09,3.0,NNW,8.1,-,N/A,,Overcast,330,2012-10-09 17:56:00
2:56 PM,57.2,53.6,88,30.09,3.0,NNW,5.8,-,N/A,,Overcast,340,2012-10-09 18:56:00
3:56 PM,55.4,53.6,94,30.08,3.0,NNW,5.8,-,N/A,,Overcast,340,2012-10-09 19:56:00
4:56 PM,55.4,55.4,100,30.08,2.0,NW,3.5,-,N/A,,Overcast,320,2012-10-09 20:56:00
5:56 PM,55.4,55.4,100,30.08,1.5,NNW,4.6,-,N/A,,Overcast,330,2012-10-09 21:56:00
6:56 PM,55.4,55.4,100,30.08,1.5,NNW,3.5,-,N/A,,Overcast,340,2012-10-09 22:56:00
7:56 PM,55.4,55.4,100,30.09,1.0,NNW,5.8,-,N/A,,Overcast,340,2012-10-09 23:56:00
8:56 PM,55.4,55.4,100,30.09,1.5,NW,3.5,-,N/A,,Overcast,320,2012-10-10 00:56:00
9:15 PM,55.4,53.6,94,30.09,2.5,NW,3.5,-,N/A,,Overcast,320,2012-10-10 01:15:00
9:35 PM,55.4,53.6,94,30.09,3.0,NW,3.5,-,0.01,,Overcast,320,2012-10-10 01:35:00
9:55 PM,55.4,55.4,100,30.09,4.0,Calm,Calm,-,0.01,,Overcast,0,2012-10-10 01:55:00
10:15 PM,55.4,55.4,100,30.09,4.0,Calm,Calm,-,N/A,,Overcast,0,2012-10-10 02:15:00
10:35 PM,55.4,55.4,100,30.09,4.0,Calm,Calm,-,N/A,,Overcast,0,2012-10-10 02:35:00
10:55 PM,55.4,55.4,100,30.09,4.0,Calm,Calm,-,N/A,,Overcast,0,2012-10-10 02:55:00
11:15 PM,55.4,55.4,100,30.09,4.0,Calm,Calm,-,N/A,,Overcast,0,2012-10-10 03:15:00
11:35 PM,55.4,55.4,100,30.09,4.0,Calm,Calm,-,N/A,,Overcast,0,2012-10-10 03:35:00
11:55 PM,55.4,55.4,100,30.08,4.0,NW,3.5,-,N/A,,Overcast,310,2012-10-10 03:55:00